STARLINK-4048, 52839

Orbit data source: Space-Track

STARLINK-4048, 52839 is a payload satellite owned by SpaceX/Seattle (US) in LEO that was launched on Fri, 17 Jun 2022 UTC via an FALCON 9 launch vehicle from the Air Force Eastern Test Range (AFETR). Payload-class satellites include a variety of spacecraft equipped with specific instruments for various scientific and technological missions. These include communications satellites like Starlink; space stations such as the ISS; scientific satellites like the Hubble; Earth observation satellites from companies like Planet Labs, Umbra, and HawkEye 360; GPS; miniature CubeSats for education and research; and military/defense satellites.

Loading next visibility...
Identifier
52839, 2022-062K
Orbit
LEO
Country
Flag of USUS
Related business
Manufacturer
SpaceX/Seattle
Mission
Operational Commercial Communications
Bus & Motor
STARLINK, Unknown motor
Mass
297 kg wet, ~275 kg dry
Launch date (UTC)
2022-06-17 (4 years ago)
Launch vehicle
FALCON 9
Launch site
Air Force Eastern Test Range (AFETR)
Object type
Payload
Rocket body
Debris
Shape & HBR
Box + 1 Pan, 10.1 m
Radar Cross Section
13.562 m², Large (>1 m²)

Expand to show TLE details & history
Last TLE update: 3 days ago

TLE from 3 days ago
0 STARLINK-4048
1 52839U 22062K   26170.61629740 -.00000087  00000-0  12630-4 0  9992
2 52839  53.1613 296.4441 0001148  85.4555 274.6568 15.08834048221176
Epoch: 2026-06-19T14:47Z
TLE epoch observation values (Epoch: 2026-06-19T14:47:28.095Z)
Latitude
0.00002°
Longitude
166.73434°
Altitude
540.589 km
Speed
7.593 km/s
True Right ascension
19h 45m 46s
True Declination
0° 00' 00"
Sunlit
Object was in full shadow at epoch
Visualization orbit readout
Latitude
Unknown
Longitude
Unknown
Altitude
Unknown
Speed
Unknown
Apparent Right ascension
Unknown
Apparent Declination
Unknown
Sunlit
N/A
Visualization observer readout
Local Sidereal Time
21:36:18
Azimuth
Unknown
Elevation
Unknown
Doppler factor
Unknown
Orbital elements
Apogee altitude
540.81 km
Perigee altitude
539.221 km
Semi-major axis
6,918.152 km
Eccentricity
0.00011
Inclination
53.1613°
RAAN
296.4441°
Arg. of periapsis
85.4555°
True anomaly
274.64369°
Mean anomaly
274.6568°
Eccentric anomaly
274.65024°
Mean motion
3.77188 °/min
Orbital period
95.44 mins
BSTAR
0.00001263
Loading maneuver chart data...
Computing Atmospheric mass density...
Loading historical data...
Loading historical data...
Loading historical data...
Loading historical data...
Loading historical data...
Loading historical data...
Loading historical data...

Documentation

Showing up to 5 results
|